Location: Clyde
(45.1830°S, 169.3170°E)
Time: 18:52:44
(UTC+13:00)

Cosmos 1869 Rocket - Pass Details

Date: 24 January 2019
Orbit: 605 x 633 km, 82.5° (Epoch: 22 October)

Event Time Altitude Azimuth Distance (km) Brightness Sun altitude
Rises 22:27:20 0° 181° (S) 2,923 7.7 -10.2°
Reaches altitude 10° 22:29:46 10° 171° (S) 2,005 6.6 -10.5°
Maximum altitude 22:33:49 34° 106° (ESE) 1,031 4.4 -11.1°
Enters shadow 22:36:41 16° 48° (NE) 1,590 5.0 -11.4°
